Regional Weather Roundup
Issued by NWS

Home | Current Version | Previous Version | Text Only | Print | Product List | Glossary On
Versions: 1 2 3 4 5 6 7 8 9 10 11 12 13 14 15 16 17 18 19 20 21 22 23 24 25 26 27
000
ASUS46 KSEW 290810
RWRWA

WASHINGTON REGIONAL WEATHER ROUNDUP
NATIONAL WEATHER SERVICE SEATTLE WA
100 AM PDT MON AUG 29 2016

NOTE:"FAIR" INDICATES FEW OR NO CLOUDS BELOW 12,000 FEET WITH NO
SIGNIFICANT WEATHER AND/OR OBSTRUCTIONS TO VISIBILITY.

WAZ505-507>509-290900-
SEATTLE, TACOMA, EVERETT, AND VICINITY

CITY           SKY/WX    TMP DP  RH WIND       PRES   REMARKS
EVERETT        CLEAR     54  51  90 CALM      30.07S
BOEING FIELD   PTCLDY    57  52  82 CALM      30.06S
RENTON         CLEAR     60  56  86 CALM      30.05S
SEATAC AIRPORT PTCLDY    57  52  83 CALM      30.06S
JBLM-MCCHORD   CLEAR     53  53  99 S2        30.06R
PUYALLUP         N/A     52  52 100 CALM      30.06S
BREMERTON      CLEAR     54  52  94 CALM      30.09S
JBLM-FT LEWIS  CLEAR     55  51  86 CALM      30.05S
TACOMA NARROWS CLEAR     56  53  90 CALM      30.07R
$$

WAZ001-503-506-510-514-515-290900-
NORTH INTERIOR

CITY           SKY/WX    TMP DP  RH WIND       PRES   REMARKS
BELLINGHAM     CLOUDY    58  56  93 SW3       30.05R
FRIDAY HARBOR  CLOUDY    52  50  93 CALM      30.06S
EASTSOUND      CLOUDY    54  54 100 CALM      30.03F
PORT ANGELES   PTCLDY    53  51  93 SW3       30.06F
EDIZ HOOK      FAIR      52  51  97 SW5       30.05F
PORT TOWNSEND  FOG       48  48 100 CALM      30.06S VSB 1/4
NAS WHIDBEY    PTCLDY    55  50  83 CALM      30.09S
ARLINGTON      CLOUDY    55  46  71 CALM      30.08R
BURLINGTON     FOG       54  54 100 CALM      30.05S VSB 1
$$

WAZ020-022-039-040-504-511-512-290900-
SOUTHWEST INTERIOR

CITY           SKY/WX    TMP DP  RH WIND       PRES   REMARKS
SHELTON        CLEAR     53  50  89 CALM      30.04S
OLYMPIA        CLEAR     54  49  83 CALM      30.06R
CHEHALIS       NOT AVBL
KELSO          CLEAR     60  55  83 N3        30.06S
VANCOUVER      CLEAR     65  53  65 NW5       30.02R
SCAPPOOSE, OR  PTCLDY    64  53  67 N5        30.02R
PORTLAND, OR   PTCLDY    65  54  67 NW7       30.03R
$$

WAZ021-516-517-290900-
WASHINGTON COAST

CITY           SKY/WX    TMP DP  RH WIND       PRES   REMARKS
FORKS          FOG       52  52 100 CALM      30.06S VSB 3/4
HOQUIAM        CLEAR     53  52  96 CALM      30.07S
ASTORIA, OR    CLEAR     54  51  90 SE5       30.07R
$$

WAZ019-023-024-040-518-519-290900-
CASCADE MOUNTAINS AND COLUMBIA GORGE

CITY           SKY/WX    TMP DP  RH WIND       PRES   REMARKS
STAMPEDE PASS  CLEAR     59  36  42 VRB3      30.15S
TROUTDALE, OR  CLEAR     60  51  72 CALM      30.02R
THE DALLES, OR PTCLDY    72  51  47 CALM      29.98R
$$

WAZ026-027-041>044-520-521-290900-
EAST SLOPES

CITY           SKY/WX    TMP DP  RH WIND       PRES   REMARKS
OMAK           MOCLDY    66  42  41 NW5       30.04R
WENATCHEE      CLEAR     67  41  38 NW7       30.04R
ELLENSBURG     CLEAR     55  44  66 CALM      30.06S
YAKIMA         CLEAR     58  45  62 W6        30.03S
$$

WAZ028-034-035-290900-
COLUMBIA BASIN

CITY           SKY/WX    TMP DP  RH WIND       PRES   REMARKS
EPHRATA        CLEAR     65  37  35 CALM      30.03R
MOSES LAKE     CLEAR     58  39  49 N7        30.03R
PASCO          CLEAR     57  50  77 N7        29.99S
HERMISTON, OR  CLEAR     59  42  53 CALM      29.97S
$$

WAZ036>038-290900-
NORTHEAST WASHINGTON

CITY           SKY/WX    TMP DP  RH WIND       PRES   REMARKS
SPOKANE GEIGER PTCLDY    64  31  28 NE3       30.10R
SPOKANE FELTS  CLEAR     57  41  55 NE5       30.10R
FAIRCHILD AFB  CLEAR     62  30  30 E2        30.09S
COEURDALENE,ID CLEAR     57  39  51 E5        30.10R
DEER PARK      CLEAR     49  34  56 NW3       30.10S
$$

WAZ029>033-290900-
SOUTHEAST WASHINGTON

CITY           SKY/WX    TMP DP  RH WIND       PRES   REMARKS
PULLMAN        CLEAR     57  37  47 CALM      30.11S
LEWISTON, ID   CLEAR     67  38  34 CALM      30.04S
WALLA WALLA    CLEAR     69  43  38 SE6       29.99F
PENDLETON, OR  CLEAR     66  39  37 E7        30.00F
$$




USA.gov is the U.S. government's official web portal to all federal, state and local government web resources and services.